IZ1UQG-1 Weather Reports


Display with metric or nautical units.
time (UTC)temp
F
wind
direction
speed
MPH
gust
MPH
rain 1hr
in
rain 24hr
in
rain mn
in
humidity
%
barometer
mb
20260503004900 60 0 0.0 0.0 5.04 0.99 0.00 56 1020.7
20260503004400 60 0 0.0 0.0 4.81 0.99 0.00 56 1020.6
20260503003900 60 0 0.0 0.0 3.79 0.99 0.00 56 1020.5
20260503003400 61 0 0.0 0.0 5.16 0.99 0.00 55 1020.5
20260503002900 61 0 0.0 0.0 4.28 0.99 0.00 55 1020.6
20260503002400 61 0 0.0 0.0 3.94 8.51 0.00 55 1020.6
20260503001900 61 0 0.0 0.0 3.69 5.92 0.00 55 1020.6
20260503001400 61 0 0.0 0.0 5.85 0.99 0.00 55 1020.9
20260503000900 61 0 0.0 0.0 4.92 0.99 0.00 54 1020.9
20260503000400 61 0 0.0 0.0 5.30 0.99 0.00 54 1020.9
20260502235900 62 0 0.0 0.0 2.16 0.99 0.00 54 1020.9
20260502235400 62 0 0.0 0.0 6.24 0.99 0.00 54 1020.8
20260502234900 62 0 0.0 0.0 5.30 0.99 0.00 54 1020.9
20260502234400 62 0 0.0 0.0 5.28 0.99 0.00 54 1020.9
20260502233900 62 0 0.0 0.0 4.12 0.99 0.00 54 1020.8
20260502233400 62 0 0.0 0.0 5.69 0.99 0.00 54 1020.8
20260502232900 62 0 0.0 0.0 4.90 0.99 0.00 54 1020.9
20260502232400 62 0 0.0 0.0 4.77 0.99 0.00 54 1020.9
20260502231900 62 0 0.0 0.0 4.39 8.51 0.00 53 1020.9
20260502231400 62 0 0.0 0.0 4.98 0.99 0.00 53 1020.9
20260502230900 62 0 0.0 0.0 5.26 0.99 0.00 53 1021.0
20260502230400 62 0 0.0 0.0 5.41 0.99 0.00 53 1020.9
20260502225900 62 0 0.0 0.0 3.96 0.99 0.00 53 1020.9
20260502225400 63 0 0.0 0.0 5.49 0.99 0.00 53 1021.0
20260502224900 63 0 0.0 0.0 6.20 0.99 0.00 53 1021.0
20260502224400 63 0 0.0 0.0 6.04 0.99 0.00 53 1020.9
20260502223900 63 0 0.0 0.0 5.61 0.99 0.00 53 1021.0
20260502223400 63 0 0.0 0.0 8.30 0.99 0.00 52 1020.8
20260502222900 63 0 0.0 0.0 7.71 0.99 0.00 52 1020.8
20260502222400 63 0 0.0 0.0 8.75 0.75 0.00 52 1020.8
20260502221900 64 0 0.0 0.0 6.98 5.90 0.00 52 1020.6
20260502221400 64 0 0.0 0.0 8.77 0.99 0.00 52 1020.7
20260502220900 64 0 0.0 0.0 9.61 0.99 0.00 51 1020.6
20260502220400 64 0 0.0 0.0 9.42 0.99 0.00 51 1020.6
20260502215900 64 0 0.0 0.0 6.40 0.99 0.00 51 1020.8
20260502215400 64 0 0.0 0.0 0.34 0.99 0.00 51 1020.8
20260502214900 64 0 0.0 0.0 9.63 0.99 0.00 51 1020.6
20260502214400 64 0 0.0 0.0 7.75 0.99 0.00 51 1020.5
20260502213900 64 0 0.0 0.0 7.61 0.99 0.00 50 1020.6
20260502213400 65 0 0.0 0.0 8.89 0.99 0.00 50 1020.5
20260502212901 65 0 0.0 0.0 8.75 0.99 0.00 50 1020.5
20260502212400 65 0 0.0 0.0 8.57 0.99 0.00 50 1020.5
20260502211900 65 0 0.0 0.0 6.67 7.49 0.00 50 1020.3
20260502211400 65 0 0.0 0.0 7.63 0.99 0.00 50 1020.5
20260502210901 65 0 0.0 0.0 5.06 0.99 0.00 49 1020.5
20260502210400 65 0 0.0 0.0 5.00 0.99 0.00 49 1020.3
20260502205900 66 0 0.0 0.0 2.90 0.99 0.00 49 1020.5
20260502205401 66 0 0.0 0.0 4.75 0.99 0.00 49 1020.2
20260502204901 66 0 0.0 0.0 3.55 0.99 0.00 48 1020.3
20260502204401 66 0 0.0 0.0 3.71 0.99 0.00 48 1020.3
20260502203901 66 0 0.0 0.0 2.55 0.99 0.00 48 1020.2
20260502203401 66 0 0.0 0.0 2.16 0.99 0.00 48 1020.2
20260502202901 67 0 0.0 0.0 9.43 0.38 0.00 47 1020.2
20260502202401 67 0 0.0 0.0 0.41 9.32 0.00 47 1020.2
20260502201901 67 0 0.0 0.0 0.61 7.28 0.00 47 1020.1
20260502201401 67 0 0.0 0.0 0.33 0.99 0.00 47 1020.1
20260502200901 68 0 0.0 0.0 9.35 0.99 0.00 46 1019.8
20260502200401 68 0 0.0 0.0 8.27 0.99 0.00 46 1020.0
20260502195901 68 0 0.0 0.0 8.76 0.99 0.00 46 1019.9
20260502195401 69 0 0.0 0.0 8.74 0.99 0.00 45 1019.9
20260502194901 69 0 0.0 0.0 8.84 0.99 0.00 45 1019.8
20260502194401 69 0 0.0 0.0 7.41 0.99 0.00 45 1019.6
20260502193901 69 0 0.0 0.0 6.86 0.99 0.00 44 1019.6
20260502193401 70 0 0.0 0.0 6.96 0.99 0.00 44 1019.5
20260502192901 70 0 0.0 0.0 6.90 0.91 0.00 44 1019.5
20260502192401 70 0 0.0 0.0 5.25 7.71 0.00 44 1019.5
20260502191901 71 0 0.0 0.0 3.82 5.37 0.00 44 1019.3
20260502191401 71 0 0.0 0.0 5.92 0.99 0.00 43 1019.2
20260502190901 71 0 0.0 0.0 5.53 0.99 0.00 43 1019.2
20260502190401 72 0 0.0 0.0 6.62 0.99 0.00 43 1019.2
20260502185901 72 0 0.0 0.0 3.98 0.99 0.00 43 1019.1
20260502185401 72 0 0.0 0.0 7.49 0.99 0.00 43 1018.9
20260502184901 73 0 0.0 0.0 5.90 0.99 0.00 43 1018.9
20260502184401 73 0 0.0 0.0 6.17 0.99 0.00 42 1018.8
20260502183901 73 0 0.0 0.0 5.37 0.99 0.00 42 1018.7
20260502183401 73 0 0.0 0.0 5.84 0.48 0.00 43 1018.6
20260502182901 74 0 0.0 0.0 6.25 9.30 0.00 42 1018.7
20260502182401 74 0 0.0 0.0 5.86 8.49 0.00 42 1018.4
20260502181901 74 0 0.0 0.0 4.39 6.57 0.00 42 1018.4
20260502181401 75 0 0.0 0.0 4.03 0.99 0.00 42 1018.3
20260502180901 75 0 0.0 0.0 2.25 0.99 0.00 41 1018.3
20260502180401 75 0 0.0 0.0 2.37 0.99 0.00 41 1018.4
20260502170401 79 0 0.0 0.0 8.38 0.99 0.00 36 1018.2
20260502163901 80 0 0.0 0.0 8.42 8.36 0.00 34 1018.3
20260502163401 80 0 0.0 0.0 9.64 8.10 0.00 34 1018.3
20260502162901 80 0 0.0 0.0 8.91 7.10 0.00 36 1018.3
20260502162401 80 0 0.0 0.0 8.95 6.75 0.00 36 1018.4
20260502161901 80 0 0.0 0.0 8.30 5.71 0.00 36 1018.5
20260502161401 80 0 0.0 0.0 8.23 0.99 0.00 36 1018.4
20260502160901 80 0 0.0 0.0 8.11 0.99 0.00 36 1018.4
20260502160401 81 0 0.0 0.0 6.97 0.99 0.00 35 1018.6
20260502151901 80 0 0.0 0.0 4.99 5.49 0.00 38 1018.9
20260502151401 80 0 0.0 0.0 5.50 0.99 0.00 38 1018.7
20260502150901 80 0 0.0 0.0 5.42 0.97 0.00 38 1018.8
20260502150401 80 0 0.0 0.0 5.50 0.61 0.00 38 1018.7
20260502130401 77 0 0.0 0.0 6.87 0.99 0.00 36 1020.5
20260502123401 77 0 0.0 0.0 5.89 7.75 0.00 37 1020.8
20260502122901 77 0 0.0 0.0 5.79 7.39 0.00 37 1021.1
20260502122401 77 0 0.0 0.0 4.67 6.20 0.00 37 1021.2
20260502121901 77 0 0.0 0.0 4.40 5.53 0.00 37 1021.1
20260502121401 77 0 0.0 0.0 4.46 0.95 0.00 37 1021.2
20260502120901 77 0 0.0 0.0 3.81 0.30 0.00 37 1021.4
20260502120401 77 0 0.0 0.0 3.40 9.08 0.00 37 1021.4
20260502115901 77 0 0.0 0.0 3.03 8.43 0.00 37 1021.4
20260502115401 77 0 0.0 0.0 4.01 8.38 0.00 37 1021.7
20260502114901 77 0 0.0 0.0 3.91 8.26 0.00 37 1021.6
20260502114401 77 0 0.0 0.0 3.38 7.51 0.00 37 1021.6
20260502113901 77 0 0.0 0.0 3.24 7.06 0.00 37 1021.7
20260502113401 77 0 0.0 0.0 3.73 6.92 0.00 37 1022.1
20260502112901 77 0 0.0 0.0 3.67 6.73 0.00 36 1022.0
20260502112401 77 0 0.0 0.0 3.60 6.57 0.00 37 1022.1
20260502111901 77 0 0.0 0.0 3.14 5.98 0.00 38 1022.2
20260502111401 77 0 0.0 0.0 4.01 1.69 0.00 37 1022.4
20260502110901 77 0 0.0 0.0 3.99 1.50 0.00 37 1022.3
20260502110401 77 0 0.0 0.0 3.87 1.22 0.00 36 1022.4
20260502105901 78 0 0.0 0.0 3.09 0.26 0.00 37 1022.5
20260502105401 78 0 0.0 0.0 3.99 0.20 0.00 37 1022.5
20260502104901 78 0 0.0 0.0 4.11 9.32 0.00 37 1022.7
20260502104401 78 0 0.0 0.0 4.05 9.18 0.00 37 1022.7
20260502103901 79 0 0.0 0.0 3.83 8.77 0.00 37 1022.8
20260502103401 80 0 0.0 0.0 4.24 8.26 0.00 38 1023.0
20260502102901 79 0 0.0 0.0 4.48 8.16 0.00 41 1022.9
20260502102401 79 0 0.0 0.0 5.05 8.04 0.00 42 1022.9
20260502101901 79 0 0.0 0.0 4.73 7.51 0.00 43 1023.1
20260502101401 78 0 0.0 0.0 5.05 0.81 0.00 44 1023.2
20260502100901 77 0 0.0 0.0 5.07 0.65 0.00 45 1023.2
20260502100401 77 0 0.0 0.0 5.56 0.47 0.00 45 1023.3
20260502091401 74 0 0.0 0.0 7.97 0.96 0.00 45 1024.2
20260502090901 73 0 0.0 0.0 7.79 0.96 0.00 46 1024.4
20260502090402 72 0 0.0 0.0 7.95 0.96 0.00 46 1024.6
20260502071402 62 0 0.0 0.0 6.29 0.96 0.00 62 1026.5
20260502070902 62 0 0.0 0.0 4.62 0.96 0.00 62 1026.7
20260502070402 61 0 0.0 0.0 5.37 0.96 0.00 62 1026.7
20260502065902 61 0 0.0 0.0 3.52 0.96 0.00 62 1026.6
20260502065402 61 0 0.0 0.0 6.09 0.96 0.00 62 1026.8
20260502064902 61 0 0.0 0.0 6.19 0.96 0.00 62 1026.9
20260502064402 60 0 0.0 0.0 5.98 0.96 0.00 62 1027.1
20260502063902 60 0 0.0 0.0 5.21 0.96 0.00 63 1027.0
20260502063402 60 0 0.0 0.0 7.17 0.96 0.00 63 1027.0
20260502062902 60 0 0.0 0.0 5.76 1.85 0.00 63 1027.0
20260502062402 59 0 0.0 0.0 5.80 0.61 0.00 64 1027.1
20260502061902 58 0 0.0 0.0 4.31 8.45 0.00 64 1027.0
20260502061402 58 0 0.0 0.0 6.39 0.96 0.00 63 1027.1
20260502060902 57 0 0.0 0.0 5.17 0.96 0.00 62 1027.1
20260502060402 57 0 0.0 0.0 6.39 0.96 0.00 63 1027.1
20260502055902 57 0 0.0 0.0 4.07 0.96 0.00 63 1027.2
20260502055402 56 0 0.0 0.0 7.86 0.96 0.00 63 1027.2
20260502054902 56 0 0.0 0.0 6.62 0.96 0.00 63 1027.3
20260502054402 56 0 0.0 0.0 6.15 0.96 0.00 63 1027.3
20260502053902 55 0 0.0 0.0 7.21 0.96 0.00 64 1027.4
20260502053402 55 0 0.0 0.0 7.70 0.57 0.00 63 1027.4
20260502052902 55 0 0.0 0.0 6.68 1.20 0.00 63 1027.3
20260502052402 55 0 0.0 0.0 8.02 1.16 0.00 63 1027.3
20260502051902 55 0 0.0 0.0 7.72 8.61 0.00 63 1027.4
20260502051402 55 0 0.0 0.0 7.15 0.96 0.00 63 1027.4
20260502050902 55 0 0.0 0.0 7.33 0.96 0.00 63 1027.5
20260502050402 55 0 0.0 0.0 6.45 0.96 0.00 63 1027.4
20260502045902 55 0 0.0 0.0 4.27 0.96 0.00 63 1027.3
20260502045402 55 0 0.0 0.0 7.43 0.96 0.00 63 1027.3
20260502044902 55 0 0.0 0.0 6.72 0.96 0.00 63 1027.3
20260502044402 54 0 0.0 0.0 4.98 0.96 0.00 63 1027.3
20260502043902 54 0 0.0 0.0 4.62 0.02 0.00 63 1027.2
20260502043402 54 0 0.0 0.0 9.06 0.02 0.00 63 1027.3
20260502042902 54 0 0.0 0.0 7.41 0.28 0.00 63 1027.1
20260502042402 54 0 0.0 0.0 6.60 8.04 0.00 63 1027.2
20260502041902 54 0 0.0 0.0 6.07 7.04 0.00 63 1027.2
20260502041402 54 0 0.0 0.0 9.29 0.96 0.00 62 1027.0
20260502040902 54 0 0.0 0.0 8.53 0.96 0.00 62 1027.0
20260502040402 54 0 0.0 0.0 7.72 0.96 0.00 62 1027.2
20260502035902 55 0 0.0 0.0 3.94 0.96 0.00 62 1027.1
20260502035402 55 0 0.0 0.0 9.41 0.96 0.00 62 1027.0
20260502034902 55 0 0.0 0.0 8.53 0.96 0.00 62 1027.1
20260502034402 55 0 0.0 0.0 8.04 0.96 0.00 62 1027.0
20260502033902 55 0 0.0 0.0 6.39 0.96 0.00 62 1027.0
20260502033402 55 0 0.0 0.0 8.78 0.96 0.00 62 1026.9
20260502032902 55 0 0.0 0.0 8.41 0.18 0.00 62 1027.0
20260502032402 55 0 0.0 0.0 8.88 1.63 0.00 62 1026.8
20260502031902 55 0 0.0 0.0 5.84 7.96 0.00 62 1026.9
20260502031402 55 0 0.0 0.0 6.98 0.96 0.00 62 1026.8
20260502030902 55 0 0.0 0.0 8.70 0.96 0.00 61 1026.9
20260502030402 55 0 0.0 0.0 8.19 0.96 0.00 61 1026.9
20260502025902 55 0 0.0 0.0 7.90 0.96 0.00 61 1026.9
20260502025402 55 0 0.0 0.0 6.68 0.96 0.00 61 1027.0
20260502024902 55 0 0.0 0.0 5.68 0.96 0.00 61 1026.8
20260502024402 55 0 0.0 0.0 7.53 0.96 0.00 61 1027.0
20260502023902 55 0 0.0 0.0 6.35 0.96 0.00 61 1026.9
20260502023402 55 0 0.0 0.0 6.78 1.10 0.00 61 1026.9
20260502022902 55 0 0.0 0.0 5.90 0.22 0.00 61 1026.9
20260502022402 55 0 0.0 0.0 7.55 9.10 0.00 61 1026.8
20260502021902 55 0 0.0 0.0 7.19 7.73 0.00 61 1026.8
20260502021402 55 0 0.0 0.0 8.41 0.96 0.00 61 1026.7
20260502020902 55 0 0.0 0.0 6.76 0.96 0.00 61 1026.6
20260502020402 56 0 0.0 0.0 6.49 0.96 0.00 60 1026.6
20260502015902 56 0 0.0 0.0 5.43 0.96 0.00 60 1026.6
20260502015402 56 0 0.0 0.0 7.39 0.96 0.00 60 1026.5
20260502014902 56 0 0.0 0.0 6.02 0.96 0.00 60 1026.7
20260502014402 56 0 0.0 0.0 6.31 0.96 0.00 60 1026.7
20260502013902 56 0 0.0 0.0 5.76 0.96 0.00 60 1026.7
20260502013402 56 0 0.0 0.0 6.47 0.96 0.00 60 1026.6
20260502012902 56 0 0.0 0.0 7.37 0.24 0.00 60 1026.6
20260502012402 56 0 0.0 0.0 5.19 9.34 0.00 59 1026.5
20260502011902 56 0 0.0 0.0 5.00 8.16 0.00 60 1026.6
20260502011402 56 0 0.0 0.0 6.39 0.96 0.00 59 1026.7
20260502010902 56 0 0.0 0.0 7.68 0.96 0.00 59 1026.6
20260502010402 56 0 0.0 0.0 6.86 0.96 0.00 59 1026.6
20260502005902 57 0 0.0 0.0 3.33 0.96 0.00 59 1026.6
20260502005402 57 0 0.0 0.0 6.04 0.96 0.00 59 1026.6